Preview of NWS' New Version of Forecast
This preview is not operational and should not be used for support decisions.

Regional Weather Roundup (RWR)

Issued by National Weather Service (NWS)

                            
000
ASUS45 KABQ 230201
RWRNM 
NEW MEXICO REGIONAL WEATHER ROUNDUP
NATIONAL WEATHER SERVICE ALBUQUERQUE NM
700 PM MST FRI FEB 22 2019

NOTE: "FAIR" MEANS FEW OR NO CLOUDS BELOW 12,000 FEET AGL WITH NO
       SIGNIFICANT WEATHER OR OBSTRUCTIONS TO VISION.

      THIS PRODUCT IS RELEASED AS TWO VERSIONS.  ONE VERSION NEAR
      THE TOP OF THE HOUR CONTAINING PRELIMINARY DATA FROM ALBUQUERQUE
      AND OTHER STATIONS.  A FINAL VERSION WITH ADDITIONAL DATA IS 
      ISSUED ABOUT 10 MINUTES AFTER THE HOUR.
 
NMZ501-503-504-510>518-230300-
NORTHWEST PLATEAU/NORTHCENTRAL MOUNTAINS
  
CITY           SKY/WX    TMP DP  RH WIND       PRES   REMARKS
FARMINGTON     CLOUDY    32  29  88 E9        29.73R WCI  24          
LOS ALAMOS     LGT SNOW  28  24  85 W12       29.70S WCI  18          
SANTA FE       LGT SNOW  31  31 100 S3        29.69R VSB 3/4          
TAOS           LGT SNOW  29  27  92 SW12      29.72R FOG     WCI  19  
ANGEL FIRE     FLURRIES  29  25  84 S5        29.69S WCI  24          

$$
NMZ402-403-502-505>509-230300-
WESTCENTRAL MOUNTAINS/SOUTHWEST MOUNTAINS
  
CITY           SKY/WX    TMP DP  RH WIND       PRES   REMARKS
GALLUP         FLURRIES  26  21  81 W9        29.76R WCI  17          
GRANTS         FAIR      29  22  76 W5        29.74S WCI  24          
SILVER CITY    MOCLDY    29  25  83 NW12      29.84R WCI  20          

$$
NMZ407-409-411-412-230300-
SOUTHERN DESERTS
  
CITY           SKY/WX    TMP DP  RH WIND       PRES   REMARKS
DEMING         FAIR      35  30  82 W14       29.86R WCI  26          
LAS CRUCES     CLOUDY    37  33  85 W9        29.85R WCI  31          
HOLLOMAN AFB   CLOUDY    45  31  58 W17       29.83R                  
ALAMOGORDO     MOCLDY    45  30  57 MISG      29.83R                  
T OR C         CLOUDY    38  29  70 N5        29.76R WCI  34          

$$
NMZ519>523-230300-
CENTRAL VALLEYS/CENTRAL HIGHLANDS
  
CITY           SKY/WX    TMP DP  RH WIND       PRES   REMARKS
ALBUQUERQUE    SNOW      31  31 100 NE9       29.79R VSB 1/2 WCI  23  
DOUBLE EAGLE   LGT SNOW  30  28  93 NE5       29.77R WCI  25          
MORIARTY ARPT  LGT SNOW  33  33 100 W10       29.73R WCI  25          
CLINES CORNERS LGT SNOW  32  29  88 SW22G29   29.71R FOG     WCI  19  
BELEN          LGT SNOW  32  32 100 E7        29.80R WCI  26          
SOCORRO        NOT AVBL                                               

$$
NMZ524>526-539-540-230300-
SOUTHCENTRAL MOUNTAINS
  
CITY           SKY/WX    TMP DP  RH WIND       PRES   REMARKS
RUIDOSO        NOT AVBL                                               

$$
NMZ527>531-230300-
NORTHEAST HIGHLANDS/NORTHEAST PLAINS
  
CITY           SKY/WX    TMP DP  RH WIND       PRES   REMARKS
LAS VEGAS      CLOUDY    40  17  39 S12       29.66S WCI  33          
RATON          CLOUDY    39  24  55 SW14G21   29.67R WCI  31          
CLAYTON        FAIR      39  31  72 SE15      29.71S WCI  31          

$$
NMZ532>537-230300-
EASTCENTRAL PLAINS
  
CITY           SKY/WX    TMP DP  RH WIND       PRES   REMARKS
SANTA ROSA     CLOUDY    54  20  27 S20G33    29.64R                  
TUCUMCARI      FAIR      45  19  35 E7        29.63F                  
CANNON AFB     NOT AVBL                                               
CLOVIS AIRPORT FAIR      46  37  71 E13       29.70F                  

$$
NMZ028-029-538-230300-
SOUTHEAST PLAINS
  
CITY           SKY/WX    TMP DP  RH WIND       PRES   REMARKS
ROSWELL        LGT RAIN  62  25  24 VRB5      29.64R                  
ARTESIA        FAIR      59  28  31 S8G15     29.61S                  
CARLSBAD       MOCLDY    64  28  25 S6        29.57F                  
HOBBS          CLOUDY    55  19  24 NW3       29.69R                  


$$